Weather History for KAAO - December, 2013

Change the Weather History Date:

Thursday, December 26, 2013

  Actual Average (KICT) Record (KICT)
Temperature  
Mean Temperature 34 °F 32 °F  
Max Temperature 44 °F 42 °F 69 °F (2008)
Min Temperature 25 °F 22 °F -6 °F (1892)
Degree Days  
Heating Degree Days 30 33  
Month to date heating degree days 802  
Since 1 July heating degree days 1678  
Cooling Degree Days 0 0  
Month to date cooling degree days 0  
Year to date cooling degree days 1686  
Moisture  
Dew Point 26 °F    
Average Humidity 73    
Maximum Humidity 88    
Minimum Humidity 55    
Precipitation  
Precipitation 0.00 in 0.03 in 0.78 in (1942)
Month to date precipitation 1.05  
Year to date precipitation 32.49  
Snow  
Snow 0.00 in 0.10 in 4.00 in (1939)
Month to date snowfall 3.5  
Since 1 July snowfall 4.9  
Snow Depth -    
Sea Level Pressure  
Sea Level Pressure 30.32 in    
Wind  
Wind Speed 8 mph (SW)    
Max Wind Speed 23 mph    
Max Gust Speed 28 mph    
Visibility 10 miles    
Events      
T = Trace of Precipitation, MM = Missing Value Source: NWS Daily Summary

Daily Weather History Graph

Daily Weather History Graph

Search for Another Location

Airport or City:

Trip Planner

Search our weather history database for the weather conditions in past years. The results will help you decide how hot, cold, wet, or windy it might be!

Date:

Astronomy

Dec. 26, 2013 Rise Set
Actual Time 7:42 AM CST 5:16 PM CST
Civil Twilight 7:13 AM CST 5:45 PM CST
Nautical Twilight 6:40 AM CST 6:18 PM CST
Astronomical Twilight 6:08 AM CST 6:50 PM CST
Moon 1:17 AM CST (12/26) 12:48 PM CST (12/26)
Length of Visible Light 10h 32m
Length of Day
9h 33m
Last Quarter, 38% of the Moon is Illuminated
Dec 26
Last Quarter
Jan 1
New
Jan 7
First Quarter
Jan 15
Full
Jan 23
Last Quarter

Hourly Weather History & Observations

Time (CST) Temp. Windchill Dew Point Humidity Pressure Visibility Wind Dir Wind Speed Gust Speed Precip Events Conditions
12:54 AM 25.0 °F - 21.9 °F 88% 30.40 in 10.0 mi Calm Calm - N/A   Clear
1:54 AM 27.0 °F 18.7 °F 23.0 °F 85% 30.37 in 10.0 mi SW 8.1 mph - N/A   Clear
2:54 AM 27.0 °F 19.5 °F 23.0 °F 85% 30.38 in 10.0 mi SW 6.9 mph - N/A   Clear
3:54 AM 28.9 °F 20.4 °F 23.0 °F 78% 30.36 in 10.0 mi SW 9.2 mph - N/A   Clear
4:54 AM 28.9 °F 20.4 °F 23.0 °F 78% 30.34 in 10.0 mi SW 9.2 mph - N/A   Clear
5:54 AM 32.0 °F 23.0 °F 23.0 °F 69% 30.33 in 10.0 mi SW 11.5 mph - N/A   Clear
6:54 AM 30.9 °F 21.2 °F 21.9 °F 69% 30.33 in 10.0 mi SSW 12.7 mph - N/A   Clear
7:54 AM 30.9 °F 21.2 °F 23.0 °F 72% 30.33 in 10.0 mi SSW 12.7 mph - N/A   Clear
8:54 AM 33.1 °F 23.4 °F 25.0 °F 72% 30.33 in 10.0 mi SSW 13.8 mph - N/A   Clear
9:54 AM 34.0 °F 24.6 °F 26.1 °F 73% 30.35 in 10.0 mi SSW 13.8 mph - N/A   Clear
10:54 AM 37.0 °F 27.7 °F 27.0 °F 67% 30.34 in 10.0 mi SSW 16.1 mph - N/A   Clear
11:54 AM 39.9 °F 31.8 °F 28.0 °F 63% 30.29 in 10.0 mi SSW 15.0 mph 23.0 mph N/A   Clear
12:54 PM 43.0 °F 36.4 °F 28.0 °F 56% 30.27 in 10.0 mi SW 12.7 mph - N/A   Clear
1:54 PM 42.1 °F 32.6 °F 28.0 °F 58% 30.25 in 10.0 mi SW 23.0 mph 27.6 mph N/A   Clear
2:54 PM 44.1 °F 37.4 °F 28.9 °F 55% 30.25 in 10.0 mi SW 13.8 mph - N/A   Clear
3:54 PM 44.1 °F 40.1 °F 30.9 °F 60% 30.26 in 10.0 mi SW 6.9 mph - N/A   Clear
4:54 PM 42.1 °F 39.2 °F 30.9 °F 65% 30.27 in 10.0 mi SW 4.6 mph - N/A   Clear
5:54 PM 39.9 °F 37.8 °F 30.0 °F 68% 30.28 in 10.0 mi West 3.5 mph - N/A   Clear
6:54 PM 35.1 °F - 28.0 °F 76% 30.29 in 10.0 mi Calm Calm - N/A   Clear
7:54 PM 37.9 °F 32.7 °F 30.0 °F 73% 30.30 in 10.0 mi WSW 6.9 mph - N/A   Clear
8:54 PM 34.0 °F - 28.0 °F 79% 30.32 in 10.0 mi Calm Calm - N/A   Clear
9:54 PM 34.0 °F 29.8 °F 28.9 °F 82% 30.32 in 10.0 mi WSW 4.6 mph - N/A   Clear
10:54 PM 30.0 °F 26.5 °F 26.1 °F 85% 30.34 in 10.0 mi West 3.5 mph - N/A   Clear
11:54 PM 30.0 °F - 27.0 °F 88% 30.34 in 10.0 mi Calm Calm - N/A   Clear